Wind_Speed
17 17 18 18 18 17 16 16 16 15 15 14 13 13 12 11 10 9 9 10 12 14 15 17 18 20 22 23 25 27 28 29 31 32 32 32 32 32 32 31 31 31 30 30 30 30 30 31 34 36 38 40 43 45 46 47 48 50 52 53 54 55 56 55 54 51 50 50 49 49 49 49 50 51 50 50 49 50 50 50 50 50 51 50 50
19 19 19 19 18 18 17 17 17 16 16 15 14 13 12 11 10 10 11 12 14 16 17 18 19 21 23 24 26 28 29 30 31 32 33 33 33 33 32 31 31 30 30 30 30 30 31 33 35 38 39 42 44 46 47 48 50 51 52 53 54 55 55 54 52 49 48 48 48 48 49 50 50 51 51 50 50 50 50 50 50 50 51 51 51
19 20 20 19 19 19 18 18 17 17 16 15 15 14 13 12 12 12 13 14 16 17 18 19 20 22 24 26 28 29 31 31 32 32 33 33 33 33 32 31 31 30 30 30 30 30 32 34 37 39 41 43 45 46 48 49 50 51 52 53 53 53 53 52 50 48 47 47 47 48 48 49 50 50 50 50 50 50 50 50 50 50 50 51 51
20 21 21 21 21 20 19 18 18 17 16 16 15 15 14 14 14 14 15 16 18 18 19 20 22 23 25 27 29 31 32 32 33 33 33 33 33 33 32 31 30 30 30 30 30 31 33 36 38 40 42 44 46 47 48 49 50 51 52 52 52 51 51 49 48 47 46 46 47 48 49 50 50 50 50 49 49 50 51 50 50 49 48 48 48
21 22 22 22 21 21 20 19 18 17 17 17 17 16 16 16 17 16 17 18 19 19 20 22 23 25 26 28 30 32 33 33 33 33 33 33 33 32 31 30 30 30 30 30 31 33 35 37 39 40 43 45 46 47 48 49 50 51 51 51 50 49 48 47 46 46 46 47 47 49 50 50 49 49 49 49 49 50 50 48 47 45 42 41 41
22 23 23 23 22 22 21 20 19 19 19 19 19 18 19 19 18 17 18 20 20 20 22 23 25 26 28 29 31 33 34 34 34 34 33 33 33 32 31 30 30 30 30 31 32 34 36 38 39 41 44 45 46 47 48 49 50 50 50 49 47 46 45 44 44 45 46 48 48 49 49 49 49 49 50 50 51 50 47 41 38 38 37 36 36
23 24 24 24 24 24 22 20 20 20 21 21 21 22 22 21 19 18 20 21 21 22 23 25 26 28 29 30 32 34 34 34 34 33 33 33 32 31 30 30 30 30 30 31 33 35 37 38 40 42 44 45 46 47 48 48 49 49 48 47 45 43 43 43 44 45 46 48 49 49 49 50 50 50 50 50 48 46 42 34 29 30 32 34 35
23 24 25 26 26 25 23 22 22 22 22 23 23 23 23 21 20 20 22 22 23 24 25 26 28 29 30 31 33 34 34 34 33 33 33 32 32 31 30 30 30 30 31 32 34 35 37 39 41 43 44 45 45 46 47 48 48 47 46 44 42 42 42 43 44 46 47 48 49 50 50 51 51 49 49 48 43 37 33 29 26 27 31 34 36
24 25 26 27 27 27 25 24 24 24 23 24 24 23 22 22 22 22 23 24 24 25 27 28 29 30 30 31 33 34 34 33 33 33 32 32 31 30 30 30 30 30 31 32 34 36 38 39 41 43 43 44 45 46 47 47 47 46 44 42 41 41 43 44 45 46 47 48 50 50 51 51 51 50 49 46 39 32 27 25 26 28 31 33 36
25 25 25 26 27 27 27 26 26 25 24 24 24 23 23 23 23 24 25 25 26 27 28 29 30 30 31 32 33 34 33 33 33 33 32 32 31 30 29 29 30 30 31 33 34 36 38 40 41 42 43 44 45 46 46 46 46 45 43 41 41 42 43 44 46 47 48 49 51 52 52 52 51 51 50 45 38 32 27 25 26 30 31 31 31
24 25 25 25 26 27 28 27 27 26 25 25 25 24 24 24 25 26 26 26 27 28 29 30 30 31 31 32 33 34 33 33 33 33 32 32 30 29 29 29 29 30 31 33 35 36 38 39 41 41 42 43 44 44 45 44 44 42 41 41 42 42 43 44 46 47 48 50 52 53 53 53 53 53 50 45 39 35 31 30 31 33 32 29 28
25 25 25 25 26 27 28 28 28 27 26 26 26 26 26 26 27 27 27 28 29 30 31 31 31 31 31 32 33 33 33 33 33 33 32 31 30 29 29 29 29 30 31 33 35 36 38 39 40 40 41 42 42 42 43 42 41 39 39 40 42 43 44 45 47 48 49 50 52 53 54 54 54 54 52 46 41 38 35 34 35 36 35 32 30
26 25 25 25 26 27 28 29 28 28 28 27 28 28 28 28 28 29 29 30 31 32 32 32 31 31 31 32 33 33 33 33 33 32 31 30 29 28 28 28 29 30 31 33 34 36 37 38 39 39 40 40 40 40 40 39 38 38 39 40 41 42 44 46 47 48 49 50 52 53 55 55 56 56 54 49 44 40 38 37 37 37 37 36 36
28 26 25 25 26 27 28 29 30 30 30 30 30 30 30 30 30 31 31 32 32 33 32 31 31 31 31 32 33 33 33 32 32 31 30 29 28 28 28 28 29 29 31 32 34 35 36 37 38 38 39 38 38 38 38 36 36 36 38 39 40 42 43 44 46 47 49 50 52 54 56 57 58 58 57 53 47 42 39 38 38 38 37 37 36
29 28 26 26 26 28 29 30 31 31 32 32 32 32 32 32 32 32 33 33 33 33 32 31 31 31 31 32 32 32 32 31 31 30 29 28 28 28 27 28 28 29 30 32 33 35 35 36 37 37 37 36 36 36 35 34 34 36 37 39 40 41 42 43 45 46 48 50 52 54 56 58 59 59 59 56 51 45 40 38 38 38 37 35 32
29 29 27 27 28 29 31 32 32 33 33 33 33 34 34 33 32 32 32 33 32 32 31 31 30 30 31 31 32 32 31 30 30 30 29 28 28 27 27 27 28 29 30 31 33 34 35 35 36 36 36 35 35 34 33 32 33 35 36 38 39 40 41 43 44 46 47 49 51 54 56 58 59 60 60 58 54 48 42 39 37 36 35 32 29
29 29 29 29 30 32 33 33 33 34 35 34 33 35 36 34 32 32 32 32 32 32 31 30 29 30 30 31 31 31 30 29 29 29 28 28 27 27 27 27 27 28 30 31 32 33 34 34 35 35 35 34 34 33 31 31 32 34 35 36 37 38 40 41 43 44 46 49 51 54 56 57 58 59 59 59 57 52 45 40 37 36 35 32 28
29 29 30 32 34 34 34 35 36 36 36 34 34 35 36 35 33 33 33 32 32 31 31 29 29 29 30 30 31 31 29 28 28 28 28 27 27 27 27 27 27 28 29 31 31 32 33 34 34 34 34 33 33 31 30 30 31 32 34 35 36 36 37 38 40 42 45 47 50 52 54 56 58 58 59 59 59 57 52 45 41 40 38 35 31
29 30 32 34 36 36 36 36 37 38 36 34 34 35 35 35 33 33 33 32 31 31 30 29 29 29 30 30 31 31 29 28 28 28 28 27 27 27 27 27 27 28 29 30 31 31 32 32 32 32 33 33 32 31 30 30 30 31 32 33 35 35 36 37 39 41 43 46 48 51 53 55 57 58 59 59 60 60 58 53 47 43 41 39 36
31 31 32 33 34 36 37 37 38 38 36 34 33 35 35 34 33 32 32 31 30 30 29 29 29 29 30 30 31 31 29 27 28 28 28 28 28 27 27 27 27 28 29 30 30 31 32 31 31 31 32 32 32 31 30 30 29 30 31 32 33 34 35 37 38 40 42 45 47 49 52 54 56 57 58 59 60 61 61 59 54 49 46 42 39
31 31 32 33 33 35 37 36 36 38 37 35 34 35 34 33 31 30 30 30 30 30 29 29 30 30 30 30 31 31 29 28 28 28 29 29 29 28 27 27 27 28 28 29 29 30 31 30 30 30 31 31 31 31 30 30 30 30 31 32 33 34 35 36 38 40 42 44 46 48 50 52 54 55 57 58 59 61 62 62 60 56 53 48 42
31 31 33 33 33 34 35 35 36 40 41 39 37 35 33 31 30 29 29 30 30 30 30 30 31 31 31 31 31 31 30 29 29 29 30 30 30 28 27 27 27 27 28 28 29 30 30 29 29 29 30 30 30 30 30 30 30 30 30 31 32 33 35 36 37 39 41 42 45 46 48 50 52 54 55 57 58 60 61 62 63 61 60 57 51
32 33 34 34 35 35 36 36 38 40 40 36 34 33 32 30 29 29 29 30 31 31 31 32 32 32 32 31 32 32 30 29 30 30 31 31 31 29 27 27 27 27 27 27 28 30 30 29 28 29 29 29 29 29 30 30 30 30 30 31 32 33 34 35 37 38 40 41 43 45 47 49 50 52 54 55 57 58 59 60 62 63 63 62 58
35 35 36 36 37 37 37 37 36 37 37 34 32 31 30 29 29 29 30 31 31 31 32 33 33 33 33 32 32 32 31 30 31 31 32 32 32 30 28 27 27 26 26 27 28 29 29 27 27 28 28 28 28 29 29 30 30 30 30 31 31 32 33 35 36 38 39 40 42 44 46 48 50 51 53 54 55 56 57 58 60 61 63 63 60
38 38 38 38 38 39 39 38 37 37 38 36 33 31 30 30 31 32 32 32 32 33 34 34 34 34 33 33 33 32 32 32 32 32 32 33 33 31 29 27 27 26 25 26 27 28 27 26 26 27 27 27 27 28 29 29 30 31 31 31 32 32 33 34 35 37 38 39 41 43 45 47 49 51 52 53 53 54 54 56 57 58 60 62 60
40 40 40 40 40 40 40 40 40 41 40 37 35 35 34 34 33 33 32 32 33 34 35 35 35 34 34 34 33 33 34 34 33 32 33 33 34 32 30 27 27 26 24 25 26 27 26 25 25 25 26 26 26 27 29 29 30 31 31 32 32 33 33 34 35 36 37 39 41 42 44 46 48 49 51 51 52 52 52 53 55 56 58 59 59
40 41 40 40 40 40 40 40 40 39 38 37 38 38 36 35 33 32 32 32 33 34 35 37 37 36 35 35 34 34 35 35 34 32 33 34 34 33 30 28 27 25 24 24 25 26 25 24 23 24 25 25 25 26 28 29 30 31 32 32 33 34 34 35 35 36 37 38 40 42 43 45 46 48 49 50 50 51 51 52 53 54 55 57 58
39 40 40 40 40 40 40 40 39 39 38 37 37 37 35 34 34 33 32 33 34 35 37 38 38 37 36 36 35 36 36 36 34 33 33 34 35 33 30 28 27 26 24 24 25 25 24 23 23 24 25 24 25 25 27 28 30 31 32 32 33 34 35 35 36 36 37 38 39 40 42 44 45 46 47 48 49 49 50 50 51 53 54 54 56
39 39 39 39 40 40 40 39 39 39 39 39 39 38 36 35 34 34 33 34 35 37 39 39 38 37 37 37 37 38 37 35 33 32 33 35 36 34 30 28 27 25 24 24 24 25 24 23 23 25 25 25 25 25 26 28 30 31 31 32 33 34 34 35 35 36 36 37 38 39 40 42 43 45 46 47 47 48 49 49 50 51 52 53 54
38 38 38 39 39 40 39 39 39 39 39 40 40 38 36 35 34 34 34 34 35 39 42 41 38 37 37 37 38 39 38 35 32 32 33 35 36 33 30 28 27 25 24 23 24 24 24 23 24 25 25 25 25 25 26 27 29 30 31 31 33 34 34 35 35 35 36 37 37 38 40 40 42 44 45 45 46 47 47 48 49 49 50 51 52
35 36 36 37 38 38 39 38 38 38 37 37 37 35 33 33 33 33 34 34 35 38 41 42 40 38 38 38 38 39 38 35 33 33 34 35 35 33 30 28 26 25 24 24 24 24 24 24 25 25 26 25 25 25 26 27 28 29 30 31 32 33 34 35 35 36 36 36 37 38 39 40 41 42 44 44 45 45 46 47 47 48 48 49 50
34 34 35 36 37 38 38 37 37 36 36 37 37 35 33 32 33 33 34 34 33 35 38 40 42 41 38 36 36 37 36 35 35 35 35 36 35 33 31 28 26 25 24 24 24 25 25 25 25 25 25 25 25 25 25 26 27 28 29 29 31 32 33 34 35 36 36 36 37 37 38 39 40 41 42 44 44 44 45 45 45 46 46 47 48
33 33 34 35 36 37 37 37 38 38 38 38 39 37 36 36 35 34 34 34 33 36 40 42 43 40 36 34 34 36 36 36 36 36 37 37 36 34 31 28 26 25 24 25 25 25 25 25 25 25 25 25 25 25 26 26 27 28 29 29 30 31 32 34 35 35 36 37 37 37 37 38 39 40 41 42 44 44 44 44 44 45 45 45 46
32 32 33 34 35 36 37 38 39 39 40 41 42 41 39 37 34 34 34 34 34 36 39 41 40 37 34 33 35 37 36 35 35 37 38 37 36 35 32 28 26 25 25 25 26 25 26 26 26 25 24 24 25 25 26 27 27 28 29 29 30 31 32 34 35 35 36 36 37 37 37 37 38 39 39 40 41 43 43 43 43 43 43 43 44
33 33 33 34 35 36 38 40 40 40 40 40 38 35 33 33 33 34 35 35 36 38 40 41 40 37 34 34 36 36 34 32 32 34 36 36 36 37 34 30 28 27 27 26 26 25 26 26 26 25 24 24 25 25 26 27 28 28 29 30 30 31 32 34 35 35 35 36 36 36 37 37 37 38 39 39 39 41 42 42 42 42 42 42 42
35 35 35 36 37 38 40 41 41 41 41 40 38 36 37 38 39 38 37 37 38 41 43 44 41 35 32 33 34 32 31 30 30 31 33 35 37 38 36 33 30 28 28 27 26 25 26 27 26 25 24 24 24 25 26 27 28 29 29 30 30 32 33 34 35 35 35 35 36 36 36 36 36 37 37 38 38 39 40 41 41 41 41 41 41
38 38 38 39 39 39 40 41 42 42 44 45 45 45 46 46 43 40 38 38 39 43 45 43 38 33 31 32 31 30 30 32 31 31 31 34 37 39 38 36 33 30 29 28 27 26 26 27 27 26 25 24 24 25 26 27 28 29 30 30 30 32 33 34 35 36 36 36 36 36 35 35 36 36 37 37 37 38 38 39 40 40 39 39 39
36 37 39 40 40 41 42 42 42 42 42 44 46 47 46 45 42 40 39 38 38 40 41 38 35 33 32 30 30 31 33 33 32 31 32 33 36 39 40 38 34 32 31 29 27 26 26 27 27 26 25 25 25 26 26 27 28 29 30 30 31 32 33 34 35 36 36 36 36 36 36 36 35 36 37 37 37 37 38 38 38 39 38 37 37
34 36 37 38 40 41 42 43 43 42 42 43 45 45 43 39 38 38 39 38 38 39 39 36 34 33 31 31 32 35 35 34 34 34 34 34 36 38 39 38 36 34 32 30 28 27 27 27 27 27 26 25 26 26 27 27 28 29 30 31 31 32 33 34 35 36 36 37 37 37 37 37 36 36 37 37 38 38 38 38 38 37 37 37 36
34 35 36 37 38 39 40 40 41 42 43 42 43 42 39 36 36 38 39 38 38 39 38 35 32 31 31 34 35 36 36 36 35 35 36 37 38 39 40 39 38 36 33 31 29 28 27 27 27 27 26 26 27 27 27 28 29 30 31 31 32 33 34 34 35 35 36 37 37 37 37 37 37 37 37 38 38 38 38 37 37 36 35 36 36
33 34 34 35 36 37 38 38 38 40 42 42 42 41 40 38 39 40 41 41 39 37 34 33 33 33 34 35 36 36 36 36 35 36 37 39 39 40 41 41 40 38 35 32 31 29 28 28 28 27 27 27 28 28 28 29 30 31 32 32 33 34 34 34 35 35 36 37 38 38 38 37 37 37 38 38 38 38 38 37 36 35 34 34 35
33 33 33 34 35 36 36 37 37 38 39 40 41 41 40 39 38 39 42 43 40 35 33 34 35 35 35 35 36 36 37 36 36 37 39 41 42 43 44 43 42 39 36 34 32 31 30 29 28 28 28 28 29 29 29 30 31 31 32 33 34 35 35 35 35 35 36 37 38 39 39 38 38 38 38 38 38 38 37 36 35 34 34 34 34
33 34 34 34 35 35 35 36 36 36 36 37 39 39 39 37 35 33 35 37 36 34 34 35 35 35 35 35 36 36 36 36 37 39 41 43 44 45 45 44 43 40 36 35 33 32 31 30 29 28 29 30 30 30 30 31 32 32 33 34 35 36 36 36 36 36 37 37 38 40 40 40 39 38 38 39 39 38 37 36 34 34 34 33 33
33 34 34 34 34 35 35 35 35 36 37 38 39 39 39 39 36 34 33 35 35 35 35 35 36 36 36 35 35 35 36 37 39 41 42 42 43 44 44 44 43 40 37 35 34 33 32 31 30 30 30 31 31 31 31 32 33 34 34 35 36 37 38 38 37 37 38 38 38 40 41 41 40 39 39 39 39 38 36 35 34 34 34 34 34
32 33 34 35 35 34 35 35 36 37 38 39 38 38 39 40 39 36 34 34 35 36 37 38 39 39 38 37 36 37 39 39 40 41 41 41 42 43 44 43 43 41 38 36 35 34 33 32 31 31 32 33 33 32 33 34 35 35 35 36 37 38 39 39 38 39 39 39 39 40 41 41 41 40 40 40 39 38 36 35 34 34 34 34 34
32 32 33 34 35 35 35 36 36 37 38 37 36 37 37 38 38 38 37 37 39 40 41 42 43 44 42 40 39 41 43 43 40 39 40 41 42 43 44 43 42 41 39 37 36 35 35 34 33 33 33 34 34 34 34 35 36 36 37 37 38 39 40 40 40 40 40 40 40 40 41 42 41 41 40 40 40 38 36 35 35 35 34 34 34
34 34 34 34 35 36 36 36 36 37 38 38 38 38 38 38 39 39 40 41 42 43 44 45 46 46 45 43 42 44 45 43 40 40 41 42 43 43 44 43 42 41 40 39 38 37 36 35 34 34 35 34 34 35 36 37 37 38 38 38 39 40 41 41 41 42 41 41 41 42 42 42 42 41 41 41 40 38 37 36 36 36 36 35 34
36 36 36 36 35 36 36 36 37 37 37 38 38 39 39 40 40 41 41 41 41 42 43 43 44 45 45 44 42 40 40 40 39 39 40 41 42 43 43 43 43 42 41 40 39 38 37 36 36 36 36 35 35 36 37 38 38 39 39 40 40 42 42 43 43 43 43 42 42 43 43 43 43 42 41 41 40 39 38 37 37 37 37 35 33
37 37 38 38 37 37 37 38 39 38 36 36 38 39 40 40 40 40 39 39 39 40 40 40 40 41 42 40 37 36 36 38 39 39 40 41 42 43 43 43 43 43 42 41 40 39 38 37 37 37 36 36 36 37 38 39 40 40 40 41 42 42 43 44 44 45 44 44 44 43 44 44 44 43 42 41 40 39 38 38 38 38 37 35 33
36 36 36 37 38 38 38 39 40 38 36 36 37 37 36 34 34 35 36 37 37 38 37 37 37 37 38 37 36 36 36 37 38 40 41 42 42 43 43 43 44 43 43 42 41 40 39 39 38 38 37 37 38 38 39 40 41 41 41 42 43 43 44 45 46 46 46 46 45 45 45 45 44 42 42 42 41 40 39 39 39 38 37 35 34
35 35 35 36 37 39 39 39 39 38 37 37 36 35 33 32 32 34 35 36 37 37 37 37 37 37 38 38 37 36 36 37 38 40 41 42 42 43 44 44 44 44 44 43 42 41 40 40 39 38 38 38 39 39 40 41 42 42 42 43 43 44 45 46 47 47 47 47 47 46 46 45 43 42 41 42 42 41 40 39 39 38 37 36 35
Wind_Direction
237 231 228 226 224 222 221 225 229 234 236 234 230 228 230 238 248 260 274 285 291 296 303 311 316 320 323 325 327 327 327 326 325 324 324 322 321 319 316 314 312 312 313 314 315 315 316 318 320 321 322 322 323 324 324 325 326 326 325 325 325 324 324 324 324 324 323 321 321 319 318 317 316 315 314 313 310 308 306 303 300 297 294 290 287
233 226 224 223 222 222 226 231 235 238 238 234 229 230 236 246 256 266 275 283 290 298 305 310 314 318 322 324 326 326 326 326 325 324 323 322 320 318 316 313 312 312 313 314 315 315 317 319 321 322 322 323 324 325 326 327 327 327 327 327 327 327 327 326 326 325 324 322 322 322 321 320 319 317 315 313 311 309 306 304 302 298 294 291 288
231 227 225 223 223 226 230 235 238 239 236 232 231 236 244 251 258 265 274 284 292 299 304 309 313 317 320 322 324 325 325 325 324 323 322 321 319 317 314 312 311 312 313 314 314 315 318 320 321 322 323 324 325 327 328 328 328 328 328 329 329 329 329 328 327 326 326 325 325 325 324 323 321 319 317 316 314 312 309 307 304 301 297 293 289
230 228 226 226 227 230 235 238 241 240 235 233 236 243 249 254 258 265 276 286 293 299 304 309 313 317 319 320 322 323 324 324 324 323 321 320 318 316 313 311 311 312 313 313 315 317 319 321 322 323 324 325 327 328 329 329 329 330 331 331 331 331 330 329 328 329 329 329 329 327 326 325 323 322 320 319 318 316 314 312 309 305 301 297 293
231 230 229 230 232 233 236 240 241 239 236 236 241 247 252 255 259 268 279 287 293 299 305 310 314 316 316 318 320 322 323 323 323 322 320 318 317 314 312 310 311 312 313 315 316 318 320 321 322 324 326 327 328 329 330 331 331 332 333 333 333 332 331 331 332 332 332 331 331 330 329 328 326 325 325 323 322 319 317 315 311 307 305 302 300
232 232 231 232 234 235 237 240 241 239 237 239 244 249 252 255 261 271 280 287 293 300 306 310 313 313 314 316 318 321 322 322 322 321 319 317 315 313 311 311 312 313 315 316 318 320 321 323 324 326 327 328 330 331 331 332 333 334 334 334 334 333 333 334 334 334 333 333 333 333 332 330 330 331 330 328 325 321 318 316 312 308 306 305 303
233 234 234 234 234 235 237 239 240 238 238 241 246 249 251 256 264 273 281 287 294 300 304 308 310 311 312 313 316 319 320 320 320 319 317 315 314 312 311 312 313 315 316 317 319 321 323 324 326 327 328 330 331 332 333 334 335 335 336 335 335 335 336 336 335 334 335 336 336 336 335 335 335 335 334 332 329 324 320 317 311 305 301 300 298
235 235 236 235 235 235 237 238 239 239 240 244 247 249 254 260 267 273 279 287 293 298 302 305 307 308 309 311 314 318 319 319 319 317 316 314 313 313 313 313 314 315 317 318 320 323 324 325 327 328 330 331 332 333 335 336 336 337 337 336 337 338 338 337 336 337 338 339 339 339 339 339 338 338 337 335 332 326 322 320 314 305 300 297 296
240 239 238 237 236 235 235 237 239 240 242 245 248 252 257 262 266 271 278 285 290 295 298 301 304 306 307 309 312 316 317 317 317 317 315 314 313 313 313 314 315 316 318 319 322 324 325 326 328 330 331 332 334 335 336 336 337 337 337 338 339 340 339 338 339 341 342 342 342 343 342 341 341 342 342 340 338 335 331 325 316 309 306 305 304
244 245 243 241 239 237 236 238 239 241 243 246 249 254 258 262 267 273 279 284 289 292 295 298 302 304 304 306 310 314 316 317 317 316 315 314 313 313 313 314 315 317 319 321 324 325 326 328 330 331 332 334 336 337 337 338 339 338 338 340 341 341 340 341 343 344 345 345 345 344 344 345 345 346 347 347 347 346 340 331 322 318 317 316 313
248 249 248 246 243 241 239 239 240 242 244 247 251 255 261 266 271 275 280 284 288 291 294 297 300 301 301 304 309 314 316 316 316 316 315 314 313 313 313 314 316 318 320 323 324 325 327 330 331 331 333 336 337 338 339 340 340 340 341 342 342 342 343 344 346 348 349 348 347 346 347 348 349 350 351 352 353 352 346 339 334 330 327 323 319
249 250 251 249 246 243 241 241 243 245 247 250 255 260 265 269 273 277 281 285 288 291 293 296 298 298 299 303 309 314 315 316 316 315 314 314 313 313 313 314 316 319 321 323 324 326 329 331 331 333 335 337 339 340 341 341 340 341 343 343 344 345 347 348 349 351 351 351 349 349 350 352 353 354 355 356 356 354 349 345 341 337 334 330 325
253 252 252 252 249 245 243 244 245 248 251 254 257 262 267 271 275 278 281 285 289 291 292 293 295 295 297 303 310 314 315 315 315 315 314 313 312 312 313 314 317 319 322 323 325 327 330 331 332 334 336 339 341 341 341 341 342 343 344 345 346 348 350 351 352 353 353 353 352 352 354 355 356 357 358 359 358 355 351 348 344 341 338 334 329
256 256 255 256 254 250 248 247 248 251 254 257 260 264 268 271 275 278 281 285 288 289 290 290 291 293 297 304 310 313 314 314 315 315 314 313 312 312 313 315 317 320 322 323 325 328 330 332 333 335 338 341 342 342 341 342 344 345 345 347 348 351 352 353 354 355 355 355 355 356 357 358 359 360 1 1 0 358 353 349 346 343 340 335 330
257 259 260 260 259 256 253 251 251 253 256 259 262 266 268 270 273 277 281 285 286 286 287 287 288 292 297 305 310 312 313 314 315 315 313 312 311 311 313 315 318 320 322 323 325 328 331 332 333 336 340 342 342 341 342 343 344 345 346 348 350 352 353 354 355 355 357 357 358 359 0 1 1 1 1 1 1 360 356 352 349 344 340 335 330
257 259 261 262 261 259 256 255 255 256 258 261 265 267 269 270 274 278 281 284 284 284 283 284 287 292 298 305 310 312 313 314 315 315 313 311 311 311 313 316 318 320 321 322 325 329 331 332 334 337 341 342 342 341 342 343 344 345 347 349 351 353 354 355 355 356 358 360 1 1 2 2 2 2 2 1 2 1 358 354 351 346 341 336 328
258 259 260 259 259 257 257 257 257 258 260 262 265 267 271 275 278 280 281 282 282 280 280 282 286 292 298 305 310 311 312 314 315 315 312 310 310 311 313 316 318 319 319 321 325 329 330 331 334 338 341 342 341 342 343 343 345 346 347 350 351 353 354 355 356 357 359 1 2 3 3 3 3 2 2 1 2 2 359 355 352 350 346 340 331
256 257 258 258 258 256 255 255 255 258 261 262 263 267 271 275 278 278 279 279 278 276 277 281 286 292 297 304 308 310 310 313 315 315 312 310 310 311 313 315 317 317 317 320 326 329 329 331 335 339 340 341 342 342 342 343 344 345 347 349 351 352 353 354 355 357 359 1 2 3 3 3 2 2 2 2 2 2 1 358 356 354 350 344 338
253 254 256 259 258 257 256 255 255 257 258 260 264 267 269 272 274 275 276 276 274 273 276 281 285 290 296 302 306 308 308 311 314 315 313 310 310 311 312 314 315 315 316 321 326 328 328 331 336 339 339 340 341 342 342 342 343 344 345 347 349 350 351 352 354 356 358 360 1 2 2 2 2 1 1 2 2 3 3 1 358 357 354 349 342
251 253 255 258 259 258 258 258 258 259 260 262 265 266 267 269 271 271 272 271 271 272 276 280 284 288 293 299 304 306 306 309 312 313 313 311 309 309 310 311 313 313 315 321 326 326 327 331 335 337 339 340 341 342 342 342 342 342 343 345 347 348 349 350 353 355 357 358 359 360 360 360 0 0 1 2 2 4 4 3 0 359 357 354 348
252 253 255 258 259 258 258 258 260 262 265 267 268 266 266 268 267 267 268 268 269 272 274 278 282 286 290 295 301 304 304 306 309 311 313 312 309 307 307 308 309 310 314 321 325 325 326 330 334 337 339 340 341 342 342 341 341 341 341 342 344 346 347 349 350 353 354 355 356 357 357 358 358 359 0 1 3 4 5 4 3 1 359 357 354
253 254 256 258 259 259 259 260 263 267 269 269 268 266 266 266 265 264 265 267 269 272 273 276 279 282 286 292 298 301 302 303 306 308 310 311 308 304 303 304 306 309 314 320 323 323 325 329 333 336 338 340 341 341 342 341 341 340 340 340 342 344 346 347 348 350 351 352 353 354 355 355 356 358 359 1 3 4 5 5 4 3 2 359 357
255 256 258 260 261 262 263 264 267 269 269 268 266 265 265 265 264 264 265 268 271 271 272 274 277 280 284 289 295 299 299 301 303 305 307 308 306 301 299 300 303 307 313 318 320 321 323 327 332 335 337 339 341 342 342 342 341 340 339 339 339 340 343 344 346 347 348 349 350 351 352 353 354 356 358 0 2 4 5 5 5 5 4 2 360
256 257 258 260 262 264 265 267 268 267 268 270 269 265 264 265 266 266 268 270 271 270 270 272 275 278 282 286 292 296 297 298 299 301 304 306 304 298 295 297 300 304 311 316 318 319 321 325 330 334 336 338 340 341 341 342 342 342 340 339 338 339 340 341 343 344 345 347 348 348 350 352 353 355 357 359 2 3 4 5 6 6 5 4 3
256 257 258 260 262 264 266 267 267 268 271 273 270 266 268 271 270 269 270 270 270 268 268 270 273 276 279 283 289 293 294 294 296 298 303 305 301 295 292 293 297 301 308 314 315 316 318 323 328 331 334 336 338 340 341 342 343 343 341 340 339 339 339 340 341 342 343 344 346 347 348 350 351 354 356 358 0 2 4 5 7 7 8 7 5
256 258 259 261 263 264 266 268 268 270 271 271 269 270 274 275 272 271 271 270 268 267 267 269 271 274 276 280 286 291 291 291 292 297 302 303 299 292 288 290 294 299 305 310 312 313 315 320 325 328 330 333 335 338 339 340 341 342 341 341 340 340 340 340 340 341 341 342 344 346 347 348 350 353 355 357 358 0 3 5 7 8 9 9 8
257 259 260 261 262 264 265 267 268 269 269 269 271 273 275 274 273 272 270 267 265 264 265 266 267 270 274 279 284 287 288 287 290 296 300 299 295 289 285 286 291 296 301 306 308 310 311 316 321 323 325 328 332 335 337 337 339 340 340 341 341 341 340 340 340 340 341 342 343 344 345 347 349 352 354 355 357 359 1 4 6 8 9 10 10
257 259 260 261 262 263 264 266 268 269 269 271 272 273 272 271 272 270 267 263 262 262 263 264 266 269 274 278 281 283 284 284 288 294 297 295 290 285 281 283 289 293 297 302 304 305 307 311 315 317 319 324 328 331 334 335 336 337 338 339 340 340 340 340 340 341 341 342 342 343 344 346 347 350 353 355 356 358 0 2 5 7 9 11 11
257 259 260 261 262 264 265 266 267 269 271 272 273 272 270 269 268 267 265 263 264 264 264 264 265 268 273 277 279 279 280 281 286 291 294 292 287 281 277 280 286 289 293 297 300 301 303 306 310 312 316 321 325 329 332 334 335 335 336 338 338 338 338 339 339 340 340 341 341 342 343 344 346 348 351 353 355 357 359 1 3 6 8 10 12
259 260 261 262 263 265 266 267 268 270 272 273 271 270 268 267 266 266 264 264 267 267 264 262 262 267 273 278 278 277 278 282 287 291 293 290 284 277 274 277 282 285 288 293 296 297 299 302 306 310 313 318 324 329 333 334 335 335 335 336 336 336 336 337 337 338 339 339 340 341 342 343 345 346 348 351 354 356 357 359 2 4 6 9 11
261 262 262 263 264 266 267 268 269 270 271 271 269 268 267 266 265 266 265 267 270 270 266 263 263 267 273 276 276 277 281 286 290 291 291 287 281 274 271 274 278 281 284 289 292 294 296 299 303 307 311 316 323 329 332 334 334 335 335 336 335 335 335 335 336 337 338 339 339 340 341 342 343 345 347 349 352 355 356 358 360 2 5 7 10
262 263 264 264 265 266 267 267 267 268 270 272 270 267 265 266 268 268 266 266 268 270 269 267 265 267 271 273 276 281 285 288 290 290 289 285 278 270 268 270 274 277 281 286 289 292 294 297 301 305 309 314 321 326 331 333 333 334 335 336 336 335 334 335 335 336 336 337 339 340 341 341 342 344 345 347 350 353 355 357 358 0 3 5 8
263 264 264 264 265 267 267 267 267 270 272 273 270 267 265 267 268 267 265 265 267 269 270 268 265 265 268 273 278 282 283 284 288 290 289 283 275 267 264 266 270 273 278 282 286 288 290 293 297 302 306 312 318 323 328 331 332 333 334 335 336 335 335 335 336 336 336 337 338 339 340 341 342 343 345 346 348 350 353 356 357 358 1 4 6
266 267 266 266 267 268 268 269 270 273 274 273 270 266 263 263 263 264 265 268 269 270 270 268 266 268 272 276 280 282 281 283 289 291 288 281 272 264 262 263 266 270 274 278 281 284 286 289 293 299 304 309 315 321 325 328 330 332 333 335 335 336 336 336 337 337 337 337 337 338 339 340 341 342 343 345 347 348 350 353 355 356 358 2 4
268 269 269 268 268 268 268 271 272 274 274 271 266 261 259 260 264 267 269 270 270 269 268 267 266 267 272 277 281 284 285 289 294 293 288 281 272 264 261 262 263 265 268 272 275 278 282 285 290 296 301 307 312 318 322 325 328 330 332 334 335 335 336 336 337 337 337 337 337 337 339 340 340 341 342 344 346 347 348 350 353 355 357 359 2
267 268 268 268 268 268 269 271 272 272 272 269 264 263 267 270 271 271 271 272 271 268 267 266 263 262 269 278 282 285 287 290 293 292 288 280 271 264 261 261 262 262 264 267 270 273 277 282 287 293 299 304 310 314 319 322 325 328 330 332 333 334 335 335 337 337 337 337 336 337 338 339 340 341 342 343 344 346 347 348 350 352 355 357 358
266 267 267 268 269 269 269 270 270 270 270 269 268 268 270 270 269 269 269 270 270 267 265 265 262 264 273 279 280 281 286 289 291 291 288 279 270 263 262 263 261 260 262 264 266 270 274 279 284 291 297 302 307 311 315 319 322 325 327 330 332 333 333 333 335 336 337 337 336 336 337 338 339 340 340 341 343 344 345 346 347 349 352 355 356
268 268 268 268 268 269 269 270 270 270 270 269 269 269 267 263 262 263 265 266 266 266 266 265 265 268 274 275 274 278 286 290 290 290 287 280 270 265 263 262 260 258 259 261 263 267 272 276 282 288 294 300 304 308 311 315 318 321 325 328 330 331 331 331 333 335 336 336 336 335 336 337 338 339 339 340 341 342 343 344 345 346 348 351 354
269 269 270 270 270 270 270 270 269 269 269 269 269 271 268 261 257 259 262 264 266 268 267 264 264 267 270 270 273 280 286 288 287 287 286 280 273 267 262 260 258 256 256 258 260 264 268 273 278 284 290 296 300 304 308 312 315 319 322 326 328 329 328 329 330 333 334 336 336 335 335 335 337 338 338 338 339 340 341 342 343 344 345 348 351
268 269 269 270 270 270 270 269 268 267 268 269 270 272 273 270 266 264 263 263 265 268 266 262 261 265 268 271 275 280 283 283 284 285 283 279 275 269 263 260 258 256 254 256 259 261 265 270 275 280 287 292 296 300 305 310 313 316 320 323 326 326 326 326 328 330 332 334 335 335 334 334 335 336 336 336 337 338 339 340 341 342 344 345 348
268 268 268 268 268 268 268 268 267 266 267 268 270 271 273 273 270 267 264 264 264 261 256 256 261 268 272 275 277 279 281 282 283 283 281 279 276 270 264 261 259 256 253 254 258 260 264 268 273 278 284 289 293 298 304 308 310 314 318 320 322 324 324 324 326 328 330 332 333 334 334 333 333 333 334 334 335 336 337 338 339 340 342 344 345
268 267 267 267 267 267 268 268 268 268 267 269 271 272 271 270 268 265 263 263 261 255 252 258 267 272 275 277 278 279 280 281 281 281 280 278 275 271 266 262 259 255 252 253 256 260 263 267 272 277 283 287 291 297 301 305 307 311 315 317 319 321 322 323 324 326 327 330 332 333 333 332 331 331 332 332 333 334 335 336 337 338 340 342 342
270 268 267 266 267 269 270 270 269 267 265 266 268 270 271 272 272 268 263 262 263 262 263 267 271 274 276 279 280 280 279 278 279 279 278 277 275 272 268 264 260 255 251 252 255 259 263 267 271 277 281 285 289 294 299 302 304 308 312 315 316 318 320 321 322 324 325 328 330 332 332 332 330 329 330 330 331 332 333 334 334 335 337 338 339
272 269 267 266 266 267 268 269 268 266 264 263 263 264 265 266 267 265 263 263 265 267 269 270 272 274 276 278 279 278 277 276 277 277 277 277 275 273 269 266 261 255 251 251 254 258 262 266 270 275 279 283 287 292 296 299 302 306 309 312 314 316 318 319 320 322 323 326 328 330 331 330 329 328 327 328 328 330 330 331 332 332 334 335 336
275 272 268 266 265 265 265 266 267 266 266 265 264 265 265 263 262 262 263 264 264 265 267 269 271 272 273 273 274 276 276 276 275 275 275 275 275 273 270 267 261 255 250 250 253 257 261 264 268 272 276 280 284 289 293 296 299 303 307 310 312 314 316 317 319 320 321 323 326 328 329 329 327 326 325 325 326 327 327 328 329 330 331 332 332
276 274 271 268 266 264 264 265 265 266 267 267 267 268 267 265 264 265 266 265 264 264 265 266 267 269 270 270 272 274 275 273 272 272 273 273 273 272 271 267 261 254 250 250 253 256 259 263 266 270 274 278 283 287 291 294 298 301 305 308 310 312 314 315 317 318 320 322 324 325 327 327 326 324 323 324 324 324 325 325 326 327 328 329 330
273 273 272 270 268 266 265 264 264 264 265 267 267 268 267 266 266 266 265 264 263 264 265 266 267 268 268 267 268 270 271 269 269 271 273 273 273 272 271 268 262 254 250 250 253 256 258 262 266 269 273 277 282 286 289 293 296 300 303 306 308 310 311 313 315 317 318 320 322 323 324 325 324 323 322 322 322 322 323 323 324 325 326 327 328
270 270 270 269 268 268 267 266 264 262 263 264 265 266 266 266 266 266 266 267 268 269 269 268 267 266 265 263 263 266 267 268 270 273 274 273 272 271 270 268 263 256 251 252 254 256 259 262 266 269 273 277 281 285 288 292 295 298 301 304 306 308 310 312 313 315 317 318 320 321 322 323 322 321 320 320 320 320 321 322 322 323 324 324 325
268 268 267 267 267 266 266 266 265 265 264 263 263 264 265 266 266 267 269 271 271 271 270 267 264 261 259 258 259 262 266 269 271 273 274 274 273 270 268 265 261 256 253 253 255 258 260 263 267 270 274 277 281 285 288 291 294 296 300 302 304 306 308 310 311 314 315 316 317 319 320 320 320 319 318 318 318 318 319 320 320 321 321 322 322
269 267 266 265 265 265 264 265 266 268 267 266 266 267 270 272 274 274 273 272 270 268 266 264 262 259 258 258 260 264 268 270 273 274 274 273 272 270 267 263 259 256 254 255 257 259 262 265 268 271 274 278 282 286 288 290 293 295 298 301 303 305 306 308 310 312 313 314 315 316 317 318 318 317 316 316 315 315 316 317 318 318 319 319 319
269 266 263 262 263 264 264 265 268 270 270 268 268 271 274 277 277 276 274 271 269 267 267 267 266 265 264 264 265 268 270 273 275 276 275 273 271 269 266 263 259 257 256 256 258 260 263 266 269 272 276 280 283 286 287 289 291 294 297 299 301 303 304 306 309 310 311 312 313 314 315 314 314 314 314 313 313 313 314 315 316 316 316 316 316
Height
5782 5783 5784 5785 5786 5787 5788 5789 5790 5790 5791 5792 5792 5792 5792 5793 5793 5794 5794 5794 5794 5794 5793 5792 5791 5790 5789 5787 5786 5784 5782 5781 5779 5778 5776 5774 5773 5771 5769 5767 5765 5763 5761 5759 5757 5755 5752 5750 5748 5745 5742 5739 5736 5733 5729 5726 5722 5717 5714 5709 5705 5702 5698 5693 5689 5684 5677 5671 5668 5664 5660 5656 5651 5646 5642 5639 5634 5629 5624 5620 5616 5613 5609 5607 5604
5780 5781 5782 5783 5784 5785 5786 5787 5788 5789 5789 5790 5790 5790 5790 5791 5791 5792 5792 5792 5792 5791 5790 5789 5788 5787 5786 5784 5783 5781 5780 5778 5777 5775 5773 5771 5770 5768 5766 5764 5762 5760 5758 5756 5754 5751 5749 5747 5744 5741 5739 5736 5733 5729 5725 5721 5717 5713 5708 5704 5699 5695 5691 5687 5683 5680 5675 5669 5664 5660 5655 5650 5646 5641 5636 5632 5627 5623 5617 5613 5609 5605 5601 5598 5595
5778 5779 5780 5781 5782 5783 5784 5785 5786 5787 5788 5788 5788 5788 5788 5789 5789 5790 5790 5790 5789 5788 5788 5787 5785 5784 5783 5782 5780 5779 5777 5776 5774 5773 5771 5768 5767 5765 5763 5761 5759 5757 5755 5753 5751 5748 5746 5743 5741 5738 5735 5732 5729 5725 5721 5717 5713 5709 5704 5699 5695 5690 5685 5681 5678 5674 5671 5666 5660 5656 5651 5646 5640 5635 5631 5625 5620 5615 5610 5605 5601 5596 5592 5589 5586
5776 5777 5778 5779 5780 5781 5782 5784 5784 5785 5785 5786 5786 5786 5787 5787 5788 5788 5788 5787 5787 5786 5785 5784 5783 5781 5780 5779 5778 5776 5775 5773 5771 5770 5768 5765 5764 5762 5760 5758 5756 5754 5752 5750 5747 5745 5743 5740 5737 5735 5732 5728 5725 5721 5717 5713 5709 5704 5700 5695 5690 5686 5681 5676 5672 5669 5666 5662 5656 5651 5646 5641 5635 5629 5625 5620 5614 5608 5602 5597 5593 5589 5584 5580 5578
5774 5775 5776 5777 5779 5780 5781 5782 5782 5783 5783 5784 5784 5784 5785 5785 5786 5786 5785 5785 5784 5783 5782 5781 5780 5779 5778 5776 5775 5774 5772 5770 5769 5767 5765 5763 5761 5759 5757 5755 5753 5751 5748 5746 5744 5742 5739 5737 5734 5731 5728 5724 5721 5717 5713 5710 5705 5700 5696 5691 5686 5682 5678 5673 5669 5664 5661 5657 5653 5647 5641 5636 5630 5624 5618 5614 5609 5603 5597 5591 5586 5581 5578 5574 5572
5772 5773 5774 5776 5777 5778 5779 5780 5780 5781 5781 5782 5782 5782 5782 5783 5783 5783 5783 5782 5781 5780 5779 5778 5777 5776 5775 5774 5772 5771 5769 5768 5766 5764 5762 5760 5758 5756 5754 5752 5750 5748 5745 5743 5741 5738 5736 5734 5731 5728 5725 5721 5717 5714 5709 5705 5701 5697 5692 5688 5683 5679 5675 5670 5666 5662 5657 5653 5649 5643 5637 5631 5626 5620 5614 5608 5601 5596 5592 5588 5582 5577 5573 5571 5568
5770 5771 5772 5774 5775 5776 5777 5778 5778 5779 5779 5780 5780 5780 5780 5781 5781 5780 5780 5779 5778 5778 5777 5776 5775 5774 5773 5771 5770 5769 5767 5765 5763 5761 5759 5757 5755 5753 5751 5749 5746 5744 5742 5740 5738 5735 5733 5730 5727 5724 5721 5718 5714 5710 5706 5701 5697 5693 5689 5685 5681 5677 5672 5668 5664 5659 5655 5650 5644 5639 5633 5627 5621 5616 5610 5604 5596 5589 5585 5584 5581 5576 5571 5568 5566
5768 5769 5770 5772 5773 5774 5775 5776 5776 5777 5777 5777 5778 5778 5778 5778 5778 5778 5777 5776 5776 5775 5774 5773 5772 5771 5770 5769 5768 5766 5764 5763 5760 5758 5756 5754 5752 5750 5747 5745 5743 5741 5739 5737 5735 5732 5729 5726 5724 5721 5717 5714 5710 5706 5702 5698 5694 5690 5686 5682 5678 5674 5670 5666 5662 5657 5651 5646 5641 5635 5629 5623 5618 5613 5607 5600 5593 5587 5581 5579 5578 5574 5570 5566 5564
5766 5767 5768 5769 5771 5772 5773 5773 5774 5774 5775 5775 5775 5775 5775 5776 5776 5775 5774 5773 5773 5772 5771 5771 5770 5769 5768 5766 5765 5764 5762 5760 5757 5755 5753 5750 5748 5746 5744 5742 5740 5738 5736 5734 5732 5729 5726 5723 5720 5717 5714 5710 5706 5702 5699 5695 5691 5687 5684 5680 5676 5672 5668 5663 5659 5654 5649 5643 5637 5632 5626 5620 5614 5609 5602 5595 5588 5583 5579 5576 5574 5570 5567 5564 5560
5764 5765 5766 5767 5769 5770 5770 5771 5771 5772 5772 5772 5772 5773 5773 5773 5773 5772 5771 5771 5770 5769 5769 5768 5767 5766 5765 5764 5763 5761 5759 5757 5754 5752 5750 5747 5745 5743 5741 5739 5737 5735 5733 5731 5729 5726 5723 5720 5717 5713 5710 5706 5702 5699 5695 5691 5687 5684 5680 5677 5673 5670 5666 5661 5656 5651 5645 5639 5634 5628 5623 5617 5610 5604 5598 5591 5584 5579 5576 5574 5571 5567 5564 5561 5557
5761 5762 5763 5765 5766 5767 5768 5768 5769 5769 5769 5769 5770 5770 5770 5770 5769 5769 5768 5768 5767 5766 5766 5765 5764 5763 5762 5761 5760 5758 5756 5753 5751 5749 5746 5744 5742 5740 5739 5737 5735 5733 5730 5728 5726 5723 5720 5716 5713 5710 5706 5702 5699 5695 5691 5688 5684 5680 5677 5673 5670 5667 5663 5658 5653 5648 5642 5637 5631 5625 5619 5613 5607 5600 5594 5587 5581 5577 5573 5570 5567 5564 5560 5558 5555
5758 5759 5760 5762 5763 5764 5764 5765 5766 5766 5766 5766 5766 5766 5766 5766 5766 5765 5765 5764 5764 5763 5763 5762 5761 5760 5759 5758 5757 5755 5752 5750 5748 5746 5743 5741 5740 5738 5736 5734 5732 5730 5728 5725 5723 5720 5717 5713 5710 5707 5703 5699 5695 5692 5688 5685 5681 5678 5674 5670 5667 5663 5659 5655 5650 5645 5640 5634 5628 5622 5616 5610 5604 5597 5591 5584 5579 5574 5571 5567 5564 5560 5556 5553 5550
5755 5757 5758 5758 5759 5760 5761 5762 5762 5763 5763 5763 5763 5763 5763 5763 5763 5762 5761 5761 5760 5760 5759 5759 5758 5757 5756 5755 5753 5751 5749 5747 5744 5742 5740 5738 5737 5735 5733 5731 5729 5727 5725 5723 5720 5717 5714 5711 5707 5703 5700 5696 5692 5689 5685 5682 5679 5675 5672 5668 5664 5660 5656 5651 5647 5642 5637 5632 5627 5620 5614 5607 5601 5594 5587 5582 5576 5572 5569 5565 5561 5557 5553 5549 5546
5752 5754 5754 5755 5756 5757 5757 5758 5759 5759 5759 5759 5759 5759 5759 5759 5759 5758 5758 5757 5757 5756 5756 5755 5755 5754 5753 5751 5750 5748 5745 5743 5741 5739 5737 5736 5734 5732 5730 5728 5726 5724 5722 5720 5717 5714 5711 5708 5705 5701 5697 5693 5690 5686 5683 5680 5676 5673 5670 5666 5663 5659 5655 5650 5645 5641 5636 5631 5625 5619 5612 5605 5599 5592 5586 5580 5575 5571 5567 5562 5558 5554 5551 5547 5543
5749 5750 5751 5752 5753 5753 5754 5754 5755 5755 5755 5755 5755 5755 5755 5755 5755 5755 5754 5754 5753 5753 5753 5752 5751 5750 5749 5748 5746 5744 5742 5740 5738 5736 5734 5733 5731 5729 5728 5726 5724 5721 5719 5717 5714 5711 5708 5705 5702 5698 5695 5691 5688 5685 5681 5678 5675 5672 5668 5665 5661 5657 5653 5649 5645 5640 5636 5630 5624 5618 5611 5605 5598 5592 5586 5580 5575 5571 5566 5562 5558 5554 5550 5546 5541
5746 5747 5748 5749 5749 5749 5749 5750 5751 5751 5751 5751 5751 5751 5751 5752 5751 5751 5750 5750 5750 5749 5749 5748 5748 5747 5746 5745 5743 5741 5739 5737 5735 5733 5732 5730 5728 5727 5725 5723 5721 5719 5716 5714 5712 5709 5706 5703 5699 5696 5692 5689 5686 5683 5680 5677 5674 5670 5667 5663 5660 5656 5652 5648 5644 5639 5635 5629 5623 5617 5611 5604 5598 5592 5586 5581 5575 5570 5566 5562 5558 5554 5549 5545 5540
5743 5744 5744 5745 5744 5744 5745 5745 5746 5746 5747 5747 5747 5747 5747 5748 5747 5747 5747 5746 5746 5746 5745 5745 5744 5744 5743 5741 5740 5738 5736 5734 5732 5731 5729 5727 5726 5724 5722 5720 5718 5716 5714 5712 5709 5706 5703 5700 5697 5693 5690 5688 5685 5682 5678 5675 5672 5669 5666 5662 5659 5655 5651 5647 5643 5639 5634 5629 5623 5617 5611 5605 5600 5594 5588 5582 5575 5569 5564 5560 5556 5551 5546 5542 5538
5739 5740 5740 5740 5739 5739 5740 5740 5740 5741 5742 5742 5743 5743 5743 5743 5744 5743 5743 5743 5743 5742 5742 5741 5741 5740 5739 5738 5736 5735 5733 5731 5730 5728 5726 5725 5723 5721 5719 5717 5715 5713 5711 5709 5706 5703 5701 5698 5694 5691 5688 5686 5683 5680 5677 5674 5671 5668 5665 5662 5658 5655 5652 5648 5644 5639 5634 5629 5623 5618 5612 5607 5601 5595 5589 5582 5575 5569 5562 5557 5552 5548 5543 5538 5533
5735 5736 5736 5735 5735 5735 5735 5736 5735 5736 5737 5738 5738 5739 5739 5739 5740 5739 5739 5739 5739 5738 5738 5738 5737 5736 5736 5734 5733 5732 5730 5728 5727 5725 5723 5722 5720 5718 5716 5714 5713 5711 5709 5706 5704 5701 5698 5695 5692 5689 5686 5684 5681 5678 5675 5673 5670 5667 5664 5661 5658 5655 5652 5648 5645 5640 5635 5629 5624 5619 5614 5608 5602 5596 5590 5583 5576 5568 5561 5555 5549 5544 5539 5534 5529
5731 5731 5732 5732 5733 5733 5733 5733 5733 5732 5732 5734 5735 5735 5735 5735 5736 5736 5735 5735 5735 5735 5734 5734 5733 5733 5732 5731 5730 5728 5727 5725 5724 5722 5721 5719 5717 5715 5713 5712 5710 5708 5706 5704 5701 5699 5696 5693 5690 5687 5684 5682 5679 5676 5674 5671 5668 5666 5663 5660 5657 5654 5651 5647 5643 5638 5634 5629 5624 5619 5614 5608 5603 5597 5591 5584 5576 5569 5561 5554 5547 5542 5537 5532 5527
5727 5728 5728 5728 5729 5729 5729 5730 5730 5729 5729 5730 5731 5730 5731 5731 5731 5731 5731 5731 5731 5731 5730 5730 5730 5729 5728 5728 5727 5725 5724 5722 5721 5719 5718 5716 5714 5712 5711 5709 5707 5706 5704 5701 5699 5696 5694 5691 5688 5685 5682 5680 5677 5674 5672 5669 5666 5664 5661 5658 5656 5652 5649 5645 5641 5637 5632 5628 5623 5619 5614 5609 5604 5598 5592 5585 5577 5569 5562 5554 5547 5541 5535 5530 5525
5723 5724 5724 5724 5725 5725 5725 5726 5726 5725 5724 5725 5726 5726 5726 5727 5727 5727 5727 5727 5727 5727 5727 5726 5726 5725 5725 5724 5723 5722 5720 5719 5718 5716 5714 5713 5711 5709 5708 5706 5705 5703 5701 5698 5696 5694 5691 5688 5686 5683 5680 5678 5675 5672 5670 5667 5664 5662 5659 5656 5654 5650 5647 5644 5640 5636 5631 5627 5623 5618 5614 5609 5604 5599 5593 5586 5578 5570 5563 5556 5548 5541 5534 5527 5521
5719 5720 5720 5720 5720 5721 5721 5722 5721 5720 5719 5720 5721 5722 5722 5723 5723 5723 5723 5723 5723 5723 5723 5722 5722 5721 5721 5720 5719 5718 5717 5715 5714 5713 5711 5710 5708 5706 5705 5703 5701 5700 5698 5696 5694 5692 5689 5686 5684 5681 5679 5676 5673 5671 5668 5665 5663 5660 5658 5655 5652 5649 5646 5642 5638 5634 5631 5627 5622 5618 5614 5609 5604 5599 5593 5587 5580 5572 5565 5558 5551 5543 5535 5528 5520
5715 5715 5716 5716 5716 5716 5716 5717 5718 5716 5716 5717 5717 5718 5718 5719 5719 5720 5719 5719 5719 5719 5719 5718 5718 5718 5717 5716 5715 5714 5713 5712 5710 5709 5708 5706 5704 5703 5701 5700 5698 5697 5695 5693 5691 5689 5687 5684 5681 5679 5676 5674 5672 5669 5667 5664 5661 5659 5656 5653 5650 5647 5644 5641 5637 5633 5630 5626 5622 5617 5613 5608 5603 5598 5592 5586 5580 5574 5567 5560 5553 5546 5537 5529 5522
5710 5711 5711 5712 5712 5711 5712 5713 5714 5713 5713 5713 5713 5713 5714 5715 5715 5715 5715 5715 5715 5715 5714 5714 5714 5713 5713 5712 5711 5710 5709 5708 5707 5705 5704 5702 5701 5699 5698 5697 5695 5693 5691 5690 5688 5687 5684 5682 5679 5677 5675 5672 5670 5667 5665 5662 5660 5657 5655 5652 5649 5646 5643 5639 5636 5632 5628 5625 5621 5616 5611 5607 5602 5596 5591 5585 5580 5575 5570 5563 5556 5549 5542 5533 5525
5706 5706 5707 5707 5707 5707 5707 5708 5708 5708 5708 5709 5709 5709 5710 5711 5711 5711 5711 5711 5710 5710 5710 5710 5709 5709 5708 5708 5707 5706 5705 5704 5703 5701 5700 5699 5697 5696 5695 5693 5692 5690 5688 5687 5685 5684 5682 5679 5677 5675 5673 5670 5668 5665 5663 5661 5658 5655 5653 5650 5647 5644 5641 5638 5634 5631 5627 5623 5619 5615 5610 5606 5601 5596 5591 5586 5581 5576 5571 5565 5559 5552 5545 5537 5530
5701 5702 5702 5702 5703 5703 5703 5703 5703 5703 5704 5705 5705 5705 5705 5706 5706 5706 5706 5706 5706 5706 5705 5705 5705 5704 5703 5703 5703 5702 5701 5699 5698 5697 5696 5695 5693 5692 5691 5690 5688 5687 5685 5684 5682 5681 5679 5677 5675 5673 5671 5668 5666 5663 5661 5659 5656 5654 5651 5648 5645 5642 5639 5636 5633 5629 5625 5621 5617 5614 5609 5605 5601 5596 5591 5586 5581 5576 5571 5566 5560 5553 5547 5540 5533
5696 5697 5697 5698 5698 5698 5698 5699 5699 5698 5699 5700 5700 5700 5700 5700 5701 5701 5701 5701 5701 5701 5700 5700 5699 5699 5699 5698 5698 5697 5696 5695 5694 5693 5692 5691 5689 5688 5687 5686 5685 5683 5682 5680 5679 5678 5676 5674 5672 5671 5669 5666 5664 5661 5659 5657 5654 5651 5649 5646 5643 5640 5637 5634 5631 5627 5624 5620 5616 5613 5609 5605 5600 5596 5591 5586 5582 5577 5571 5566 5561 5555 5549 5543 5536
5691 5692 5692 5693 5693 5693 5693 5694 5694 5694 5694 5695 5695 5695 5695 5695 5695 5695 5696 5696 5696 5695 5694 5694 5694 5694 5694 5694 5693 5692 5691 5690 5689 5689 5688 5686 5685 5684 5683 5682 5681 5680 5678 5677 5676 5675 5673 5672 5670 5668 5666 5664 5661 5659 5656 5654 5652 5649 5646 5644 5641 5639 5636 5633 5630 5626 5623 5619 5615 5612 5608 5604 5600 5596 5591 5587 5582 5577 5572 5567 5562 5556 5551 5545 5538
5686 5687 5688 5688 5688 5688 5689 5689 5690 5690 5690 5689 5689 5690 5690 5690 5690 5690 5690 5691 5691 5690 5689 5688 5689 5690 5689 5689 5688 5687 5686 5685 5685 5684 5683 5682 5681 5680 5679 5678 5677 5676 5675 5674 5673 5672 5671 5669 5668 5666 5664 5661 5659 5656 5654 5652 5649 5647 5644 5642 5639 5637 5634 5631 5628 5625 5622 5618 5614 5611 5607 5603 5599 5595 5591 5587 5582 5577 5572 5567 5562 5557 5552 5547 5541
5681 5682 5683 5683 5683 5683 5683 5684 5684 5685 5685 5684 5684 5685 5685 5685 5685 5685 5685 5686 5686 5685 5684 5684 5684 5685 5684 5683 5683 5682 5681 5681 5680 5680 5679 5678 5677 5676 5675 5674 5673 5672 5671 5671 5670 5669 5668 5667 5665 5664 5662 5659 5656 5654 5651 5649 5647 5645 5643 5640 5638 5635 5633 5630 5627 5624 5620 5617 5613 5610 5606 5602 5598 5594 5590 5586 5582 5578 5573 5568 5563 5558 5553 5548 5543
5677 5677 5677 5678 5678 5677 5678 5679 5680 5680 5680 5680 5679 5680 5680 5680 5680 5680 5680 5680 5681 5680 5680 5679 5679 5679 5679 5679 5678 5678 5677 5676 5676 5675 5674 5673 5672 5672 5671 5670 5669 5668 5668 5667 5667 5666 5665 5664 5662 5661 5659 5657 5654 5651 5649 5647 5645 5643 5641 5638 5636 5634 5631 5628 5625 5622 5619 5615 5612 5609 5605 5601 5597 5594 5590 5585 5582 5578 5574 5569 5564 5560 5555 5550 5545
5672 5672 5673 5673 5673 5672 5673 5674 5674 5675 5675 5675 5675 5674 5674 5674 5675 5674 5674 5675 5676 5675 5674 5673 5673 5673 5674 5675 5674 5673 5673 5672 5671 5670 5669 5668 5668 5667 5667 5666 5665 5664 5664 5664 5663 5662 5661 5660 5659 5658 5656 5654 5652 5649 5647 5645 5643 5641 5639 5636 5634 5632 5629 5626 5623 5620 5617 5614 5610 5607 5604 5600 5597 5593 5589 5585 5581 5577 5574 5570 5565 5561 5556 5552 5547
5667 5668 5669 5668 5668 5668 5668 5668 5669 5669 5669 5669 5669 5669 5669 5669 5669 5669 5669 5670 5670 5670 5668 5668 5668 5669 5669 5670 5669 5668 5667 5667 5666 5666 5664 5664 5664 5663 5662 5661 5661 5660 5660 5659 5659 5658 5657 5657 5656 5654 5653 5651 5649 5646 5644 5642 5640 5638 5636 5634 5632 5630 5627 5624 5621 5618 5615 5612 5609 5605 5602 5599 5596 5592 5589 5585 5581 5577 5573 5569 5566 5562 5557 5553 5549
5663 5664 5664 5664 5664 5663 5663 5663 5664 5664 5663 5663 5663 5663 5663 5664 5664 5664 5664 5665 5665 5664 5663 5663 5663 5664 5665 5665 5664 5663 5663 5662 5662 5661 5660 5659 5659 5659 5658 5657 5656 5655 5655 5654 5654 5654 5653 5653 5652 5651 5649 5648 5646 5644 5642 5640 5638 5636 5634 5631 5629 5627 5625 5622 5619 5616 5613 5610 5607 5604 5601 5598 5595 5591 5588 5584 5581 5577 5573 5569 5566 5562 5558 5553 5550
5658 5659 5659 5659 5659 5658 5658 5658 5658 5658 5658 5658 5658 5658 5658 5658 5658 5658 5659 5659 5658 5657 5656 5656 5658 5660 5660 5660 5659 5658 5658 5658 5657 5656 5655 5655 5655 5655 5654 5653 5652 5651 5650 5650 5649 5649 5649 5649 5648 5647 5646 5645 5643 5641 5639 5637 5635 5633 5631 5629 5627 5625 5623 5620 5618 5615 5612 5609 5605 5602 5599 5596 5593 5590 5587 5583 5580 5576 5572 5568 5565 5562 5558 5554 5550
5653 5653 5653 5653 5653 5653 5652 5652 5652 5652 5652 5652 5651 5651 5651 5651 5652 5652 5652 5653 5652 5651 5650 5651 5653 5655 5655 5655 5655 5654 5654 5653 5653 5652 5651 5650 5650 5650 5650 5649 5648 5647 5646 5645 5645 5645 5645 5645 5644 5643 5642 5641 5640 5638 5637 5635 5633 5631 5628 5626 5624 5622 5620 5618 5615 5613 5610 5607 5604 5601 5598 5595 5592 5589 5586 5582 5579 5576 5572 5568 5565 5561 5558 5555 5551
5648 5648 5648 5648 5647 5647 5646 5646 5647 5647 5646 5645 5645 5644 5644 5644 5645 5646 5646 5647 5647 5646 5646 5647 5649 5649 5649 5649 5649 5649 5649 5648 5648 5647 5646 5646 5646 5646 5645 5645 5644 5643 5642 5641 5641 5641 5641 5640 5640 5639 5638 5637 5637 5635 5634 5632 5630 5628 5626 5624 5622 5620 5618 5616 5613 5610 5607 5605 5602 5599 5596 5593 5590 5587 5584 5581 5578 5575 5572 5568 5565 5561 5558 5555 5552
5643 5643 5642 5642 5642 5641 5641 5641 5641 5641 5641 5640 5640 5639 5639 5640 5640 5641 5641 5641 5641 5641 5642 5643 5644 5644 5644 5644 5644 5644 5643 5643 5642 5642 5641 5641 5641 5641 5641 5640 5639 5638 5637 5637 5636 5636 5636 5636 5636 5635 5634 5634 5633 5632 5631 5629 5627 5625 5623 5621 5619 5617 5615 5613 5611 5608 5605 5602 5600 5597 5594 5591 5588 5586 5582 5580 5577 5574 5571 5568 5565 5561 5558 5555 5552
5637 5637 5637 5637 5636 5636 5635 5635 5635 5635 5635 5635 5635 5634 5635 5636 5636 5636 5636 5636 5636 5636 5637 5638 5639 5638 5638 5638 5638 5638 5638 5637 5637 5636 5635 5635 5635 5636 5636 5635 5634 5634 5633 5633 5632 5632 5632 5632 5632 5631 5631 5630 5630 5629 5627 5625 5624 5622 5620 5618 5616 5614 5612 5611 5608 5606 5603 5600 5598 5595 5592 5589 5586 5584 5581 5578 5575 5572 5570 5567 5564 5561 5558 5554 5551
5632 5631 5631 5631 5631 5630 5630 5630 5630 5630 5629 5629 5629 5630 5630 5631 5631 5631 5630 5630 5630 5631 5632 5633 5633 5632 5633 5633 5633 5632 5632 5632 5631 5631 5630 5629 5630 5630 5630 5630 5629 5629 5629 5628 5628 5628 5628 5628 5628 5627 5627 5626 5626 5625 5623 5622 5620 5619 5616 5614 5613 5611 5609 5608 5606 5603 5600 5598 5595 5592 5590 5587 5584 5582 5579 5576 5574 5571 5568 5566 5563 5560 5557 5554 5551
5626 5626 5626 5625 5625 5625 5625 5625 5625 5624 5624 5623 5624 5624 5624 5625 5625 5625 5625 5625 5625 5625 5626 5626 5626 5626 5627 5627 5627 5626 5626 5626 5626 5625 5624 5624 5624 5624 5624 5624 5624 5624 5624 5624 5624 5623 5624 5624 5623 5623 5622 5622 5621 5621 5619 5618 5617 5615 5613 5611 5609 5608 5606 5604 5602 5600 5598 5595 5592 5590 5587 5585 5582 5580 5577 5574 5572 5569 5567 5564 5562 5559 5557 5554 5551
5621 5620 5620 5620 5620 5620 5620 5619 5619 5619 5619 5619 5618 5618 5618 5619 5620 5620 5621 5621 5621 5621 5621 5621 5621 5621 5621 5621 5621 5621 5621 5621 5620 5620 5619 5619 5619 5619 5619 5618 5618 5619 5619 5619 5619 5619 5619 5619 5619 5619 5618 5618 5617 5616 5615 5614 5613 5612 5610 5608 5606 5604 5603 5601 5599 5597 5595 5592 5590 5587 5584 5582 5580 5577 5575 5572 5570 5567 5565 5563 5560 5558 5555 5553 5550
5615 5615 5615 5615 5615 5615 5614 5614 5614 5613 5613 5614 5614 5614 5614 5615 5615 5616 5616 5616 5616 5616 5616 5616 5616 5616 5616 5616 5616 5616 5615 5615 5615 5614 5614 5614 5614 5614 5614 5613 5614 5614 5615 5615 5614 5614 5615 5615 5615 5614 5614 5613 5613 5612 5611 5611 5609 5608 5606 5604 5602 5600 5599 5597 5595 5593 5591 5589 5587 5584 5582 5579 5577 5574 5572 5570 5567 5565 5563 5561 5559 5556 5554 5551 5549
5610 5610 5610 5609 5609 5609 5609 5609 5609 5609 5609 5609 5609 5609 5609 5610 5610 5610 5611 5611 5611 5611 5611 5611 5611 5611 5611 5611 5611 5610 5610 5610 5609 5609 5609 5608 5608 5608 5608 5608 5609 5610 5610 5610 5610 5610 5610 5610 5610 5610 5610 5609 5608 5608 5607 5606 5605 5603 5601 5600 5598 5596 5595 5593 5591 5590 5587 5585 5583 5581 5579 5576 5574 5572 5569 5567 5565 5563 5560 5558 5557 5554 5552 5550 5547
5605 5605 5605 5604 5604 5604 5604 5604 5604 5604 5604 5604 5605 5604 5604 5604 5605 5605 5605 5605 5605 5606 5606 5606 5606 5606 5606 5606 5605 5605 5604 5604 5603 5603 5603 5603 5602 5602 5603 5603 5604 5605 5605 5606 5605 5605 5605 5605 5606 5605 5605 5605 5604 5604 5603 5602 5600 5599 5597 5595 5594 5592 5590 5589 5587 5585 5584 5582 5580 5578 5575 5573 5571 5568 5566 5564 5562 5560 5558 5556 5554 5552 5550 5548 5545
5600 5600 5600 5599 5599 5599 5599 5599 5599 5599 5599 5599 5599 5599 5599 5599 5599 5599 5599 5599 5599 5600 5600 5600 5600 5600 5600 5599 5599 5599 5598 5598 5598 5597 5597 5597 5597 5597 5597 5598 5599 5600 5601 5601 5601 5601 5601 5601 5601 5601 5601 5600 5600 5599 5598 5597 5596 5594 5592 5591 5589 5587 5586 5584 5583 5581 5579 5577 5575 5574 5572 5570 5567 5565 5563 5561 5559 5557 5555 5553 5551 5549 5547 5545 5543
5595 5594 5594 5594 5594 5594 5593 5593 5593 5593 5593 5593 5593 5593 5593 5593 5593 5593 5593 5593 5593 5593 5593 5593 5593 5593 5593 5593 5593 5592 5592 5592 5592 5592 5592 5592 5591 5591 5592 5592 5594 5595 5596 5596 5596 5596 5596 5596 5596 5596 5596 5596 5595 5594 5593 5592 5591 5589 5588 5586 5585 5583 5581 5580 5578 5576 5575 5573 5571 5569 5568 5566 5564 5562 5559 5557 5555 5553 5551 5549 5547 5545 5543 5542 5540
5589 5589 5588 5588 5588 5588 5588 5587 5587 5587 5588 5588 5587 5587 5587 5587 5587 5587 5588 5587 5587 5587 5587 5587 5587 5587 5587 5587 5587 5587 5587 5587 5587 5587 5587 5586 5586 5586 5586 5587 5588 5589 5590 5591 5591 5591 5591 5591 5591 5591 5591 5591 5590 5589 5589 5588 5586 5585 5583 5582 5580 5578 5576 5575 5573 5571 5570 5568 5566 5565 5563 5562 5560 5558 5555 5553 5551 5550 5548 5546 5544 5542 5540 5538 5536
5583 5583 5583 5583 5583 5583 5582 5581 5581 5582 5582 5582 5582 5581 5582 5582 5582 5582 5582 5582 5582 5582 5582 5581 5581 5581 5581 5581 5581 5582 5582 5582 5582 5582 5581 5581 5581 5581 5582 5582 5583 5584 5585 5585 5586 5586 5586 5586 5586 5586 5586 5586 5585 5584 5584 5583 5581 5580 5578 5577 5575 5574 5572 5570 5568 5566 5565 5563 5561 5560 5559 5557 5555 5553 5551 5549 5547 5545 5544 5542 5540 5538 5536 5534 5533
5578 5578 5577 5577 5577 5577 5576 5576 5576 5576 5576 5576 5576 5576 5577 5577 5577 5577 5578 5578 5578 5577 5577 5577 5577 5576 5576 5576 5576 5576 5576 5576 5576 5576 5576 5576 5576 5576 5577 5577 5578 5579 5580 5580 5581 5581 5581 5581 5581 5581 5581 5581 5580 5579 5579 5577 5576 5575 5573 5572 5570 5569 5567 5565 5564 5562 5560 5558 5556 5555 5554 5552 5551 5549 5547 5544 5542 5541 5540 5538 5536 5534 5532 5530 5528